Cloud_Cover
100 100 100 100 100 100 100 100 100 73 14 100 100 100 15 5 5 5 0 0 0 0 3 5 92 25 0 35 100 100 76 87 52 100 100 100 100 100 100 100 100 100 100 100
100 100 100 100 100 100 100 100 98 96 95 100 100 86 32 7 0 0 0 0 0 0 0 2 3 52 4 6 55 75 100 100 84 100 100 100 100 100 100 100 100 100 100 100
100 100 87 99 100 100 100 100 94 100 100 89 24 76 28 92 39 22 6 1 1 0 4 2 5 1 5 28 87 100 100 100 100 78 100 100 100 100 100 100 100 100 100 100
100 100 100 100 100 99 100 100 80 30 96 100 84 66 11 50 99 84 6 5 5 0 4 36 14 28 100 100 100 100 100 99 100 100 100 100 100 100 100 100 100 100 100 100
100 100 100 100 100 100 100 100 99 100 100 97 100 97 100 98 100 100 68 48 5 5 5 5 5 59 100 100 100 100 100 100 100 100 100 100 100 100 100 100 100 100 100 100
100 100 100 100 100 100 100 100 100 100 95 100 100 100 100 18 100 98 5 15 5 5 0 5 6 80 95 99 100 100 100 100 100 100 100 100 100 100 100 100 100 100 100 100
100 100 100 100 100 100 88 100 100 100 80 93 97 100 100 100 71 100 97 27 8 0 23 100 98 96 100 92 98 100 100 100 100 100 100 100 100 100 100 100 100 100 100 100
100 100 100 100 100 100 99 100 100 100 66 96 100 100 100 99 98 100 99 92 55 67 97 98 100 96 59 37 100 100 100 100 100 100 100 100 100 100 100 100 100 96 98 100
100 100 100 100 100 100 100 100 100 100 100 100 95 100 100 100 96 100 99 12 63 94 100 100 100 100 100 88 100 100 100 100 100 100 100 100 100 100 100 100 96 100 100 100
100 100 100 91 99 100 100 100 100 100 100 91 100 100 100 77 88 46 98 98 100 99 99 99 100 100 100 100 100 100 100 100 100 100 100 100 100 100 100 97 100 100 100 100
100 100 96 100 100 100 100 100 100 100 100 100 100 100 99 100 100 100 100 100 100 100 100 100 100 100 100 100 100 100 100 100 100 100 100 100 100 100 100 100 100 100 100 100
100 100 100 100 100 100 100 100 100 100 100 100 100 100 100 100 100 100 100 100 100 100 100 100 100 100 100 100 100 100 85 100 100 100 100 100 100 100 99 100 100 100 100 8
100 100 100 100 100 100 100 100 100 100 100 100 100 100 100 100 100 100 100 100 100 100 100 100 100 100 99 100 100 100 100 100 100 100 100 100 100 100 100 100 100 78 5 5
100 100 100 100 100 100 100 100 100 100 100 100 100 100 100 100 100 100 100 100 100 100 100 100 100 100 100 100 100 100 100 100 100 100 100 100 100 100 100 100 57 13 5 5
100 100 100 94 100 100 100 100 100 100 100 100 100 100 100 100 100 100 100 100 100 100 100 86 100 100 100 100 99 99 100 100 100 100 100 100 100 100 100 72 24 5 5 5
100 100 100 100 100 100 100 100 100 100 100 100 100 100 100 100 100 100 100 100 100 100 100 100 100 100 100 100 100 100 100 100 100 99 98 100 100 100 95 79 8 5 5 5
100 100 100 100 100 100 100 100 100 100 100 100 100 100 100 100 100 100 100 100 100 100 100 98 100 94 100 100 100 100 85 100 96 75 66 100 100 100 96 7 5 5 5 0
100 100 100 100 100 100 100 100 100 100 100 100 100 100 98 97 100 100 100 100 100 100 100 100 100 100 100 100 100 100 57 58 100 100 100 100 100 90 18 33 42 5 5 0
100 100 100 100 100 100 100 100 100 100 100 100 100 100 100 100 100 100 100 100 100 100 100 77 51 99 89 100 100 100 81 56 100 100 100 100 53 44 88 100 6 5 5 5
100 100 100 100 100 100 100 100 100 100 100 100 100 100 100 84 100 100 96 78 100 84 52 52 67 52 96 99 75 44 59 100 98 100 100 100 100 100 100 100 5 5 1 0
100 100 100 100 100 100 100 100 100 100 100 100 100 98 100 100 100 88 100 91 76 24 40 14 79 98 91 62 52 80 91 87 84 91 100 100 100 100 100 63 5 5 3 0
100 100 100 100 100 100 100 100 100 100 100 100 100 100 100 97 97 100 79 68 64 77 53 82 100 84 67 56 87 88 99 98 78 99 100 100 100 100 95 9 5 5 4 3
100 100 100 100 98 83 100 98 100 100 100 100 100 100 100 100 84 100 100 100 62 6 77 87 94 52 97 49 58 58 87 100 100 100 100 100 100 100 50 27 6 5 5 5
100 100 100 69 77 100 100 100 100 100 96 100 100 100 100 100 100 100 99 100 70 76 100 100 55 48 97 98 100 82 99 91 100 100 100 100 100 98 40 49 5 5 5 5
100 100 100 100 100 100 100 100 100 96 100 100 97 44 58 64 86 100 100 100 81 100 98 81 58 63 55 78 98 100 99 100 100 100 100 100 100 68 35 60 20 5 5 5
100 100 100 100 100 100 100 100 100 100 95 97 86 73 93 100 100 94 100 100 100 97 98 99 51 100 99 100 100 99 100 100 100 100 100 100 100 75 58 61 58 5 5 5
95 100 100 100 100 100 100 100 100 100 99 100 74 100 100 99 97 98 99 100 100 100 100 100 74 97 100 100 100 100 100 100 100 100 100 100 100 100 100 100 100 88 25 5